Simultaneous Nadir Overpasses (SNOs) Predictions

Prediction of SNOs between GOES-17 and NOAA-19 Satellite Orbit:

Table of predicted SNOs for the next 14.0 days since TLE Epoch: 7/21/2023
Index Date Time (GOES-17) GOES-17 Lat,Lon NOAA-19 Lat,Lon Distance(km) Time Diff (sec)
1 07/23/2023 03:50:00 -0.00,-104.70 -0.56,-107.06 269.75 80
2 07/24/2023 03:35:18 -0.00,-104.70 0.15,-104.13 65.25 80
3 07/25/2023 03:23:14 -0.00,-104.70 0.82,-101.19 400.11 80
4 07/26/2023 15:55:13 0.00,-104.73 0.97,-108.86 471.52 80
5 07/27/2023 15:43:09 0.00,-104.73 0.29,-105.92 136.61 80
6 07/28/2023 15:33:46 0.00,-104.72 -0.39,-102.99 198.20 80
7 07/31/2023 03:53:57 -0.00,-104.68 -0.71,-107.78 354.48 80
8 08/01/2023 03:41:54 -0.01,-104.67 -0.03,-104.85 20.07 80
9 08/02/2023 03:27:11 -0.01,-104.66 0.65,-101.91 314.58 80
10 08/04/2023 15:47:03 0.01,-104.68 0.47,-106.63 222.46 80
